Weather Roundup
Issued by NWS Springfield, MO

Home | Current Version | Previous Version | Text Only | Print | Product List | Glossary On
Versions: 1 2 3 4 5 6 7 8 9 10 11 12 13 14 15 16 17 18 19 20 21 22 23 24 25 26 27 28 29 30 31 32 33 34 35 36 37 38 39 40 41 42 43 44 45 46 47 48 49 50
000
NZUS99 KSGF 282307
HRRSGF

HOURLY WEATHER
NATIONAL WEATHER SERVICE SPRINGFIELD MO
600 PM CDT THU AUG 28 2014

......SGF CWA......

CITY           SKY/WX    TMP DP  RH WIND       PRES   REMARKS
SPRINGFIELD    SUNNY     91  55  29 S12       29.92F
JOPLIN         SUNNY     91  59  33 S15G23    29.90F HX  90
WEST PLAINS    MOSUNNY   90  59  35 S9        29.96F
ROLLA          MOSUNNY   92  61  35 SW9       29.93S HX  92
OSAGE BEACH    MOSUNNY   93  63  36 S6        29.91F HX  94
BRANSON        MOSUNNY   91  59  33 S9G16     29.96F HX  90

......SURROUNDING SGF CWA......

CITY           SKY/WX    TMP DP  RH WIND       PRES   REMARKS
CHANUTE        PTSUNNY   93  59  31 S13G23    29.89S HX  92
PARSONS        SUNNY     92  60  34 S7        29.90S HX  91
COFFEYVILLE    MOSUNNY   93  61  34 S10G22    29.88S HX  93
EMPORIA        PTSUNNY   87  66  49 S9        29.85F
GROVE OK       SUNNY     91  61  35 SE9       29.91S HX  91
ROGERS AR      SUNNY     88  59  37 SE12      29.94F
HARRISON AR    SUNNY     86  62  44 S5        29.96F
NEAR YELLVILLE SUNNY     91  57  31 S6        29.93S HX  90

......KANSAS AND MISSOURI......

CITY           SKY/WX    TMP DP  RH WIND       PRES   REMARKS
KANSAS CTY INT MOSUNNY   90  69  50 SE14      29.87S HX  94
DOWNTOWN KC    SUNNY     92  66  42 S16       29.86S HX  94
COLUMBIA       MOSUNNY   91  66  43 S10       29.92F HX  93
SEDALIA        MOSUNNY   89  67  47 SE6       29.91F HX  92
ST JOSEPH      MOSUNNY   89  71  55 S9        29.84F HX  95
ST LOUIS       TSTM      79  74  84 W8        29.96R
SPIRIT OF STL  PTSUNNY   77  71  82 E3        29.93F
KIRKSVILLE     MOSUNNY   84  74  71 E6        29.94F HX  91
WICHITA        CLOUDY    77  69  76 S13       29.88F
TOPEKA         MOSUNNY   92  62  36 S12       29.83F HX  92
OLATHE         SUNNY     88  67  49 S14       29.88F HX  91

......TENNESSEE......

CITY           SKY/WX    TMP DP  RH WIND       PRES   REMARKS
MEMPHIS        PTSUNNY   91  64  40 SW9       29.94S HX  92
NASHVILLE      PTSUNNY   89  71  55 NE8       29.97R HX  95

......ARKANSAS.......

CITY           SKY/WX    TMP DP  RH WIND       PRES   REMARKS
FAYETTEVILLE   SUNNY     88  61  40 SE10      29.93F
FT SMITH       SUNNY     92  62  36 SE8       29.87F HX  92
LITTLE ROCK    MOSUNNY   91  62  37 S7        29.91F HX  91

......OKLAHOMA.......

CITY           SKY/WX    TMP DP  RH WIND       PRES   REMARKS
TULSA          MOSUNNY   93  62  35 SE13      29.85F HX  93
PONCA CITY     LGT RAIN  76  69  79 N14       29.86F
MCALESTER      MOSUNNY   90  67  46 SE6       29.88F HX  93
OKLAHOMA CITY  CLOUDY    83  62  49 SW13      29.88R

......IOWA............

CITY           SKY/WX    TMP DP  RH WIND       PRES   REMARKS
DES MOINES     PTSUNNY   80  72  76 SE9       29.90F
QUAD CITIES    LGT RAIN  69  67  93 E9        29.99F

......ILLINOIS........

CITY           SKY/WX    TMP DP  RH WIND       PRES   REMARKS
QUINCY         LGT RAIN  74  70  87 N7        29.96R FOG
CHICAGO        CLOUDY    72  58  61 NE9       30.06S




USA.gov is the U.S. government's official web portal to all federal, state and local government web resources and services.